Current Weather Conditions by Major Hwy


I-84 West to East [Columbia River Gorge] 300 AM PST MON JAN 22 2018 ELEVA CITY SKY/WX TMP DP RH WIND PRES REMARKS 10 ASTORIA, OR MOCLDY 46 41 82 W13 30.12R 20 KELSO LGT RAIN 44 41 89 S6 30.16R 40 PORTLAND, OR CLOUDY 43 40 89 SE7 30.18S 30 TROUTDALE, OR CLEAR 38 37 97 CALM 30.18R 240 THE DALLES, OR MOCLDY 33 31 92 CALM 30.17R 620 HERMISTON, OR PTCLDY 35 33 92 S8 30.13R 1,480 PENDLETON, OR MOCLDY 39 33 79 CALM 30.11R 2,710 LA GRANDE LGT RAIN 36 32 85 S9 30.11S 3,370 BAKER CITY CLOUDY 34 30 85 S7 30.10R 2,190 ONTARIO CLOUDY 37 34 89 SE6 30.18F
I-90 West to East 300 AM PST MON JAN 22 2018 ELEVA CITY SKY/WX TMP DP RH WIND PRES REMARKS 30 SEATAC AIRPORT CLOUDY 42 40 92 S8 30.09R 1,730 ELLENSBURG NOT AVBL 1,200 MOSES LAKE CLEAR 31 29 92 CALM 30.08R 1,880 SPOKANE GEIGER PTCLDY 33 32 96 S5 30.05R
I-82 North West to South East 300 AM PST MON JAN 22 2018 ELEVA CITY SKY/WX TMP DP RH WIND PRES REMARKS 1,730 ELLENSBURG NOT AVBL 1,050 YAKIMA TC FAIR 28 26 89 SW3 30.07R 720 360 PASCO PTCLDY 37 32 82 SW12 30.13R 620 HERMISTON, OR PTCLDY 35 33 92 S8 30.13R
Hwy97 North to South 300 AM PST MON JAN 22 2018 ELEVA CITY SKY/WX TMP DP RH WIND PRES REMARKS 850 OMAK CLEAR 30 29 96 CALM 30.03R 630 WENATCHEE CLEAR 31 29 92 S3 30.05R 1,730 ELLENSBURG NOT AVBL 1,050 YAKIMA TC FAIR 28 26 89 SW3 30.07R 1,640 GOLDENDALE* MOCLDY 33 31 92 CALM 30.17R *From Dallesport Airport Elev 240 3,080 REDMOND PTCLDY 32 28 85 CALM 30.12R 4,100 KLAMATH FALLS CLOUDY 33 31 92 N3 30.15R
I-5 North to South 300 AM PST MON JAN 22 2018 ELEVA CITY SKY/WX TMP DP RH WIND PRES REMARKS 150 BELLINGHAM LGT RAIN 44 40 85 S15G23 30.03R 100 ARLINGTON CLOUDY 43 39 86 S13 30.08R 610 EVERETT CLOUDY 41 38 89 SE21 30.06S 30 SEATAC AIRPORT CLOUDY 42 40 92 S8 30.09R 200 OLYMPIA RAIN 41 40 96 S13 30.11R 20 KELSO LGT RAIN 44 41 89 S6 30.16R 100 VANCOUVER MOCLDY 43 41 93 CALM 30.17R 40 PORTLAND CLOUDY 43 40 89 SE7 30.18S 200 SALEM CLOUDY 43 40 89 S9 30.18R 360 EUGENE CLOUDY 41 41 100 S5 30.23R 510 ROSEBURG CLOUDY 43 42 97 SE6 30.26R 1,300 MEDFORD MOCLDY 41 41 100 CALM 30.24R
Data from:
http://www.wrh.noaa.gov/sew/get.php?pil=RWR&sid=OR&version=0&format=printer
http://www.wrh.noaa.gov/sew/get.php?pil=RWR&sid=WA&version=0&format=printer

Current Observations

Washington State Current Weather Observations   …  Oregon State Current Weather Observation



48 Hour Forecast

Seattle  …  Vancouver  …  Portland
————————————————————————————————————————
Bend  …  Spokane  …  Richland  …  Pendleton  …  Blue Mountains I-84  …  Yakima
————————————————————————————————————————
Goldendale, Washington Higher Elevations  …  Dallesport Airport - Goldendale  …  Bingen - White Salmon - Hood River  …  Index


Top of Page